sat.trackr.live / text

‹ back to catalog

STARLINK-11642 [DTC]

NORAD 63188 · 2025-048F

PAYLOAD ACTIVE UNKNOWN

§ Identity

Operator
Country
US
Launch date
2025-03-13
Launch site
AFETR
Launch vehicle
Mass (kg)
RCS (m²)

Purposes: comms

External: N2YO · Heavens-Above · Gunter

§ Orbital elements

Epoch: 2026-05-25T04:51:17.622720Z

Period
91.66 min
Inclination
42.9968°
Eccentricity
0.0000562
Mean motion
15.70965837 rev/d
Perigee alt
355.8 km
Apogee alt
356.5 km
Semi-major
6,734.3 km
B*
1.4229e-3
RAAN
218.7925°
Arg perigee
25.1686°
Mean anomaly
334.9209°
Rev number
7,055

§ Raw data

STARLINK-11642 [DTC]1 63188U 25048F   26145.20228730  .00187297  00000+0  14229-2 0  99902 63188  42.9968 218.7925 0000562  25.1686 334.9209 15.70965837 70559

JSON: /api/v1/satellites/63188 · /tle

For live sub-satellite position, see the globe view (requires WebGL).

§ Visibility from observer

Set your observer location to see the next 7 days of passes ≥ 10°. The values pass through the URL so the page stays shareable.

No JS? Fill the form by hand. The geolocation button needs JavaScript.